Location: Lussas
(44.6119°N, 4.4726°E)
Time: 19:35:46
(UTC+00:00)

USA 306 - Pass Details

Date: 26 November 2020
Orbit: 565 x 579 km, 54.0° (Epoch: 22 January)

Event Time Altitude Azimuth Distance (km) Brightness Sun altitude
Exits shadow 05:43:19 15° 317° (NW) 1,611 4.7 -12.2°
Maximum altitude 05:45:48 23° 0° (N) 1,251 4.5 -11.8°
Drops below altitude 10° 05:49:17 10° 54° (NE) 1,897 6.1 -11.2°
Sets 05:51:55 0° 69° (ENE) 2,795 7.3 -10.8°
